DW2629 Weather Reports


time (UTC)temp
F
wind
direction
speed
knots
gust
knots
rain 1hr
in
rain 24hr
in
rain mn
in
humidity
%
barometer
mb
20260503194522 78 306 0.9 8.7 0.00 0.00 0.00 59 1012.0
20260503193018 77 314 1.7 7.8 0.00 0.00 0.00 59 1012.3
20260503191512 77 304 2.6 7.0 0.00 0.00 0.00 60 1012.4
20260503190017 76 306 1.7 7.8 0.00 0.00 0.00 60 1012.5
20260503184513 76 301 0.0 7.8 0.00 0.00 0.00 61 1012.8
20260503183004 75 305 0.0 8.7 0.00 0.00 0.00 65 1012.8
20260503181504 74 308 3.5 7.8 0.00 0.00 0.00 62 1012.9
20260503180001 75 308 1.7 7.0 0.00 0.00 0.00 63 1013.0
20260503174602 75 304 1.7 7.0 0.00 0.00 0.00 63 1013.1
20260503173110 75 300 0.0 4.3 0.00 0.00 0.00 62 1013.1
20260503171554 73 302 0.9 4.3 0.00 0.00 0.00 63 1013.3
20260503081545 52 306 0.0 0.0 0.00 0.00 0.00 90 1014.0
20260503071556 53 306 0.0 0.0 0.00 0.00 0.00 89 1013.9
20260503054534 55 306 0.0 0.0 0.00 0.00 0.00 84 1013.6
20260503053029 56 306 0.0 0.0 0.00 0.00 0.00 83 1013.5
20260503051529 57 306 0.0 0.0 0.00 0.00 0.00 81 1013.6
20260503050036 58 306 0.0 0.0 0.00 0.00 0.00 78 1013.5
20260503044528 59 306 0.0 0.0 0.00 0.00 0.00 76 1013.3
20260503043027 60 306 0.0 0.0 0.00 0.00 0.00 73 1013.1
20260503041535 61 306 0.0 0.0 0.00 0.00 0.00 72 1013.0
20260503040024 62 306 0.0 0.0 0.00 0.00 0.00 72 1012.8
20260503034525 63 306 0.0 0.0 0.00 0.00 0.00 70 1012.6
20260503033023 64 306 0.0 0.9 0.00 0.00 0.00 68 1012.3
20260503031523 65 306 0.9 4.3 0.00 0.00 0.00 65 1012.3
20260503030024 66 306 0.0 3.5 0.00 0.00 0.00 64 1012.1
20260503024522 67 307 0.0 3.5 0.00 0.00 0.00 62 1012.0
20260503023022 69 307 0.9 5.2 0.00 0.00 0.00 61 1012.0
20260503021524 70 305 0.0 4.3 0.00 0.00 0.00 60 1011.8
20260503020022 71 306 1.7 5.2 0.00 0.00 0.00 60 1012.1
20260503014519 73 306 0.9 7.0 0.00 0.00 0.00 58 1012.1
20260503013018 74 309 0.0 5.2 0.00 0.00 0.00 57 1012.2
20260503011518 75 310 1.7 9.6 0.00 0.00 0.00 56 1012.2
20260503010019 75 308 1.7 5.2 0.00 0.00 0.00 57 1012.3
20260503004515 75 303 3.5 9.6 0.00 0.00 0.00 55 1012.4
20260503003014 76 306 2.6 8.7 0.00 0.00 0.00 56 1012.4
20260503001511 76 291 3.5 9.6 0.00 0.00 0.00 57 1012.5
20260503000004 75 305 4.3 7.8 0.00 0.00 0.00 58 1012.6
20260502234503 75 315 3.5 9.6 0.00 0.00 0.00 60 1012.7
20260502233100 75 306 4.3 9.6 0.00 0.00 0.00 59 1012.8
20260502231600 74 306 2.6 10.4 0.00 0.00 0.00 62 1013.1
20260502230056 74 293 6.1 11.3 0.00 0.00 0.00 61 1013.2
20260502224553 75 310 3.5 9.6 0.00 0.00 0.00 61 1013.5
20260502223052 75 246 3.5 9.6 0.00 0.00 0.00 64 1013.6
20260502221549 75 298 1.7 7.8 0.00 0.00 0.00 63 1013.9
20260502220045 74 303 3.5 7.8 0.00 0.00 0.00 63 1014.1
20260502214542 73 205 2.6 11.3 0.00 0.00 0.00 66 1014.2
20260502213037 73 302 3.5 10.4 0.00 0.00 0.00 66 1014.5
20260502211534 73 294 3.5 6.1 0.00 0.00 0.00 63 1014.5
20260502210031 72 308 2.6 7.8 0.00 0.00 0.00 68 1014.6
20260502204529 71 296 5.2 9.6 0.00 0.00 0.00 67 1014.7
20260502203028 72 285 2.6 7.8 0.00 0.00 0.00 68 1014.8
20260502201525 71 277 1.7 9.6 0.00 0.00 0.00 69 1015.0
20260502200023 71 305 1.7 7.8 0.00 0.00 0.00 72 1015.2